Location: Saint Louis
(38.6272°N, 90.1978°W)
Time: 17:32:15
(UTC-05:00)

Tiangong 1 - Visible Passes

Search period start: 30 August 2015 00:00
Search period end: 09 September 2015 00:00
Orbit: 366 x 385 km, 42.8° (Epoch: 30 August)

Date Brightness Start Highest point End Pass type
(mag) Time Alt. Az. Time Alt. Az. Time Alt. Az.
30 Aug 2.1 21:14:22 10° WNW 21:17:19 37° N 21:17:38 35° NNE visible
31 Aug 2.3 20:11:52 10° WNW 20:14:49 36° N 20:17:43 10° ENE visible
31 Aug 3.4 21:48:35 10° WNW 21:50:03 24° NW 21:50:03 24° NW visible
01 Sep 1.9 20:46:10 10° WNW 20:49:10 41° N 20:50:23 27° ENE visible
02 Sep 1.8 21:20:14 10° WNW 21:22:43 51° WNW 21:22:43 51° WNW visible
03 Sep 1.5 20:17:45 10° WNW 20:20:50 51° NNE 20:23:00 17° E visible
03 Sep 4.1 21:54:25 10° W 21:55:01 14° W 21:55:01 14° W visible
04 Sep 1.0 20:51:45 10° WNW 20:54:52 68° SSW 20:55:18 57° SSE visible
05 Sep 1.1 19:49:09 10° WNW 19:52:18 70° NNE 19:55:24 10° ESE visible
05 Sep 3.4 21:26:07 10° W 21:27:37 19° WSW 21:27:37 19° WSW visible
06 Sep 1.9 20:23:09 10° W 20:26:09 42° SSW 20:27:57 20° SE visible
07 Sep 3.6 20:58:00 10° WSW 20:59:44 14° SW 21:00:20 13° SSW visible
08 Sep 2.8 19:54:30 10° W 19:57:12 26° SSW 19:59:53 10° SSE visible
